Weather History for KGRR - September, 2013

Change the Weather History Date:

Friday, September 20, 2013

  Actual Average Record
Temperature  
Mean Temperature 68 °F 61 °F  
Max Temperature 74 °F 71 °F 90 °F (1931)
Min Temperature 62 °F 51 °F 33 °F (1956)
Degree Days  
Heating Degree Days 0 5  
Month to date heating degree days 52 59  
Since 1 July heating degree days 78 79  
Cooling Degree Days 3 2  
Month to date cooling degree days 82 57  
Year to date cooling degree days 752 682  
Growing Degree Days 20 (Base 50)    
Moisture  
Dew Point 65 °F    
Average Humidity 82    
Maximum Humidity 90    
Minimum Humidity 73    
Precipitation  
Precipitation 0.03 in 0.16 in 1.75 in (1957)
Month to date precipitation 1.00 2.85  
Year to date precipitation 33.32 27.57  
Snow  
Snow 0.00 in 0.00 in 0.00 in ()
Month to date snowfall 0.0 0.0  
Since 1 July snowfall 0.0 0.0  
Since 1 September snowfall 0.0 0.0  
Snow Depth 0.00 in    
Sea Level Pressure  
Sea Level Pressure 29.79 in    
Wind  
Wind Speed 11 mph (SW)    
Max Wind Speed 20 mph    
Max Gust Speed 23 mph    
Visibility 9 miles    
Events Rain , Thunderstorm    
T = Trace of Precipitation, MM = Missing Value Source: NWS Daily Summary

Daily Weather History Graph

Daily Weather History Graph

Search for Another Location

Airport or City:

Trip Planner

Search our weather history database for the weather conditions in past years. The results will help you decide how hot, cold, wet, or windy it might be!

Date:

Astronomy

Sep. 20, 2013 Rise Set
Actual Time 7:27 AM EDT 7:42 PM EDT
Civil Twilight 6:59 AM EDT 8:10 PM EDT
Nautical Twilight 6:25 AM EDT 8:43 PM EDT
Astronomical Twilight 5:51 AM EDT 9:17 PM EDT
Moon 8:12 PM EDT (9/20) 8:44 AM EDT (9/20)
Length of Visible Light 13h 11m
Length of Day
12h 15m
Full, 98% of the Moon is Illuminated
Sep 20
Full
Sep 26
Last Quarter
Oct 4
New
Oct 11
First Quarter
Oct 18
Full

Hourly Weather History & Observations

Time (EDT) Temp. Dew Point Humidity Pressure Visibility Wind Dir Wind Speed Gust Speed Precip Events Conditions
12:00 AM 73.4 °F 66.2 °F 78% 29.88 in 9.0 mi NW 8.1 mph - N/A   Mostly Cloudy
12:53 AM 72.0 °F 66.0 °F 81% 29.85 in 9.0 mi Variable 3.5 mph - N/A   Overcast
1:23 AM 71.6 °F 66.2 °F 83% 29.84 in 8.0 mi South 10.4 mph - N/A Thunderstorm Scattered Clouds
1:40 AM 71.6 °F 66.2 °F 83% 29.83 in 7.0 mi South 12.7 mph - N/A   Partly Cloudy
1:53 AM 72.0 °F 66.9 °F 84% 29.82 in 7.0 mi South 13.8 mph - N/A   Partly Cloudy
2:53 AM 71.1 °F 66.9 °F 87% 29.82 in 6.0 mi South 9.2 mph - N/A   Partly Cloudy
3:53 AM 73.0 °F 68.0 °F 84% 29.79 in 6.0 mi South 9.2 mph - N/A   Haze
4:53 AM 73.9 °F 69.1 °F 85% 29.79 in 6.0 mi SSW 9.2 mph 18.4 mph N/A   Haze
5:53 AM 73.0 °F 69.1 °F 87% 29.77 in 6.0 mi South 10.4 mph - N/A   Partly Cloudy
6:53 AM 72.0 °F 68.0 °F 87% 29.78 in 5.0 mi SSW 5.8 mph - N/A   Partly Cloudy
7:02 AM 71.6 °F 69.8 °F 94% 29.80 in 5.0 mi SW 6.9 mph - N/A   Mostly Cloudy
7:53 AM 73.0 °F 66.9 °F 81% 29.81 in 6.0 mi WSW 16.1 mph 21.9 mph N/A   Haze
8:53 AM 72.0 °F 63.0 °F 73% 29.80 in 10.0 mi SW 11.5 mph - N/A   Mostly Cloudy
9:51 AM 71.6 °F 62.6 °F 73% 29.83 in 10.0 mi WSW 16.1 mph - N/A   Overcast
9:53 AM 71.1 °F 63.0 °F 75% 29.82 in 10.0 mi WSW 16.1 mph - N/A   Overcast
10:53 AM 72.0 °F 64.0 °F 76% 29.82 in 10.0 mi WSW 11.5 mph - N/A   Overcast
11:53 AM 72.0 °F 63.0 °F 73% 29.80 in 10.0 mi WSW 12.7 mph 23.0 mph N/A   Overcast
12:53 PM 72.0 °F 64.0 °F 76% 29.79 in 10.0 mi SW 16.1 mph - N/A   Overcast
1:53 PM 71.1 °F 64.0 °F 78% 29.78 in 10.0 mi SW 12.7 mph - N/A   Overcast
2:42 PM 71.6 °F 64.4 °F 78% 29.78 in 10.0 mi SW 15.0 mph - N/A   Overcast
2:53 PM 70.0 °F 64.0 °F 81% 29.78 in 9.0 mi WSW 13.8 mph - 0.00 in Rain Light Rain
3:30 PM 71.6 °F 64.4 °F 78% 29.78 in 10.0 mi SW 11.5 mph - 0.00 in   Overcast
3:53 PM 72.0 °F 64.0 °F 76% 29.76 in 10.0 mi SW 15.0 mph - 0.00 in   Overcast
4:53 PM 72.0 °F 64.0 °F 76% 29.75 in 10.0 mi WSW 13.8 mph - N/A   Overcast
5:53 PM 71.1 °F 64.0 °F 78% 29.75 in 10.0 mi WSW 12.7 mph - N/A   Overcast
6:23 PM 71.6 °F 64.4 °F 78% 29.76 in 10.0 mi WSW 12.7 mph - N/A   Overcast
6:53 PM 71.1 °F 64.0 °F 78% 29.75 in 10.0 mi West 10.4 mph - N/A   Overcast
7:53 PM 69.1 °F 64.0 °F 84% 29.74 in 10.0 mi SW 5.8 mph - N/A   Overcast
8:53 PM 68.0 °F 63.0 °F 84% 29.74 in 10.0 mi WSW 10.4 mph - N/A   Overcast
9:53 PM 68.0 °F 60.1 °F 76% 29.76 in 10.0 mi West 10.4 mph - N/A   Overcast
10:53 PM 66.0 °F 57.0 °F 73% 29.77 in 10.0 mi West 8.1 mph 17.3 mph N/A   Overcast
11:53 PM 63.0 °F 57.0 °F 81% 29.77 in 10.0 mi West 6.9 mph - N/A   Overcast